Regional Weather Roundup
Issued by NWS

Home | Current Version | Previous Version | Text Only | Print | Product List | Glossary On
Versions: 1 2 3 4 5 6 7 8 9 10 11 12 13 14 15 16 17 18 19 20 21 22 23 24 25 26 27 28 29 30 31 32 33 34 35 36 37 38 39 40 41 42 43 44 45 46 47 48 49 50
000
ASUS44 KOUN 252310
RWROK

WEATHER ROUNDUP FOR OKLAHOMA
NATIONAL WEATHER SERVICE NORMAN OK
500 PM CST SAT FEB 25 2017

NOTE: "FAIR" INDICATES FEW OR NO CLOUDS BELOW 12,000 FEET WITH NO
      SIGNIFICANT WEATHER AND/OR OBSTRUCTIONS TO VISIBILITY.

OKZ001>007-009>012-014-015-017-260000-
NORTHWEST OKLAHOMA AND THE PANHANDLE

CITY           SKY/WX    TMP DP  RH WIND       PRES   REMARKS
GAGE           SUNNY     48  13  24 S15       29.99F
GUYMON         SUNNY     52   6  15 SW14G26   29.85F
ENID/WOODRING  SUNNY     46  19  34 S12G17    30.06F
$$

OKZ016-021>023-033>039-044-045-260000-
SOUTHWEST OKLAHOMA

CITY           SKY/WX    TMP DP  RH WIND       PRES   REMARKS
LAWTON/REGL    SUNNY     48  16  27 S10       30.08F
LAWTON/FT SILL SUNNY     49  19  30 S9        30.06F
FREDERICK      SUNNY     49  17  28 S13       30.05F
CLINTON        SUNNY     45  14  28 S14G20    30.05F
HOBART         SUNNY     47  20  34 S10       30.07F
ALTUS AFB      SUNNY     48  14  25 S9        30.06F
$$

OKZ018>020-024>031-260000-
CENTRAL OKLAHOMA

CITY           SKY/WX    TMP DP  RH WIND       PRES   REMARKS
OKLAHOMA CITY  SUNNY     48  14  25 S12       30.07F
OKC/WILEY POST SUNNY     48  13  24 SE8       30.07F
OKC/TINKER AFB SUNNY     49  10  21 SE6       30.06F
STILLWATER     SUNNY     48  11  22 S6G21     30.08F
GUTHRIE        SUNNY     48  11  22 S9        30.07F
$$

OKZ008-013-054>072-260000-
NORTHEAST OKLAHOMA

CITY           SKY/WX    TMP DP  RH WIND       PRES   REMARKS
TULSA          MOSUNNY   48   9  20 SW5       30.11F
TULSA/JONES    SUNNY     48  10  21 S8        30.12F
PONCA CITY     SUNNY     46  13  26 S8        30.08F
BARTLESVILLE   SUNNY     47   6  18 SE6       30.12F
MUSKOGEE       SUNNY     48  12  23 W3        30.14F
$$

OKZ032-040>043-046>053-073>077-260000-
SOUTH CENTRAL/SOUTHEAST OKLAHOMA

CITY           SKY/WX    TMP DP  RH WIND       PRES   REMARKS
ARDMORE/DWNTWN SUNNY     50  12  22 S6        30.11F
MCALESTER      MOSUNNY   50  12  21 MISG      30.12F
$$




USA.gov is the U.S. government's official web portal to all federal, state and local government web resources and services.